Weather in Liskeard

United Kingdom     50°27′12″N   4°27′53″W
temp.,
°C
wind,
m/s
gust,
m/s
humid.,
%
clouds,
%
prec.,
mm/h
press.,
hPa
HPBL,
m
16 may, mon
mon1601:00+13sse359980 1.3 1009236
04:00+13ssw41198100 0.4 1009422
07:00+13ssw5129654 0.4 1010585
10:00+15s81294100 0.4 1012804
13:00+14sw6109473 1.2 1013699
16:00+16ssw897531 0.1 10141135
19:00+14ssw5990100 0.1 1015667
22:00+12s4109990 0.0 1016385
17 may, tue
tue1701:00+12sse5129721 0.0 1016405
04:00+12s6149624 0.0 1016575
07:00+13sse512946 0.0 1015503
10:00+16sse8147688 0.0 1015936
13:00+17sse10157331 0.0 1013950
16:00+13s91696100 2.7 1013945
19:00+13sw488911 2.9 1014694
22:00+10ssw4109725 0.0 1016343
18 may, wed
wed1801:00+11ssw6129894 0.1 1017634
04:00+11ssw5119655 0.1 1018579
07:00+12ssw489883 0.1 1018494
10:00+14s71084100 0.1 1019829
13:00+15s71078100 0.1 1018980
16:00+15sse81279100 0.0 10171047
19:00+11s51297100 0.8 1017571
22:00+12s41097100 0.3 1017495
19 may, thu
thu1901:00+10sw1198100 0.3 101719
04:00+8wsw119595 0.0 101714
07:00+10ssw249498 0.0 1019151
10:00+14sw46775 0.0 1019972
13:00+16sw686610 0.0 10201476
16:00+16sw57647 0.0 10201274
19:00+14ssw468042 0.0 1020588
22:00+10s339542 0.0 102142
20 may, fri
fri2001:00+10sse3596100 0.0 1020103
04:00+9sse36966 0.0 1019113
07:00+11sse410946 0.0 1018460
10:00+14ssw7981100 0.3 1017907
13:00+16sw811658 0.3 10171352
16:00+16wsw8117942 0.8 10161205
19:00+14wsw611820 1.1 1017966
22:00+10wsw4119770 0.0 1018379